This is the latest recevied weather packets stored in our database for station/object 4S6DRJ-13. If no packets are shown the sender has not sent any weather packets the latest 10 day(s).
| Time | Temp. | Humidity | Pressure | Rain* | Wind** | Luminosity | Snow |
|---|---|---|---|---|---|---|---|
| 1777612461 | 30° C | 80% | 1009.5 hPa | 0.25 mm | 0.45 m/s, 244° | 607 W/m² | - |
| 1777612400 | 30° C | 80% | 1009.2 hPa | 0.25 mm | 0.45 m/s, 224° | 729 W/m² | - |
| 1777612342 | 30° C | 79% | 1009.3 hPa | 0.25 mm | 0.89 m/s, 343° | 755 W/m² | - |
| 1777612278 | 30° C | 80% | 1009.3 hPa | 0.25 mm | 1.34 m/s, 333° | 725 W/m² | - |
| 1777612217 | 30° C | 80% | 1009.4 hPa | 0.25 mm | 0.45 m/s, 271° | 724 W/m² | - |
| 1777612156 | 30° C | 81% | 1009.5 hPa | 0.25 mm | 0.45 m/s, 239° | 730 W/m² | - |
| 1777612095 | 30° C | 81% | 1009.3 hPa | 0.25 mm | 0.89 m/s, 326° | 725 W/m² | - |
| 1777612034 | 30° C | 80% | 1009.4 hPa | 0.25 mm | 0.89 m/s, 305° | 527 W/m² | - |
| 1777611973 | 30° C | 81% | 1009.4 hPa | 0.25 mm | 0.89 m/s, 329° | 516 W/m² | - |
| 1777611912 | 30° C | 82% | 1009.6 hPa | 0.25 mm | 0 m/s | 711 W/m² | - |
| 1777611851 | 29.44° C | 82% | 1009.5 hPa | 0.25 mm | 0 m/s | 745 W/m² | - |
| 1777611790 | 29.44° C | 83% | 1009.4 hPa | 0.25 mm | 0 m/s | 650 W/m² | - |
| 1777611729 | 29.44° C | 82% | 1009.4 hPa | 0.25 mm | 0 m/s | 444 W/m² | - |
| 1777611668 | 29.44° C | 82% | 1009.4 hPa | 0.25 mm | 0.89 m/s, 200° | 373 W/m² | - |
| 1777611608 | 29.44° C | 83% | 1009.3 hPa | 0.25 mm | 0.45 m/s, 229° | 360 W/m² | - |
| 1777611546 | 29.44° C | 84% | 1009.4 hPa | 0.25 mm | 0.89 m/s, 336° | 359 W/m² | - |
| 1777611485 | 29.44° C | 84% | 1009.2 hPa | 0.25 mm | 0.45 m/s, 322° | 360 W/m² | - |
| 1777611424 | 28.89° C | 83% | 1009.4 hPa | 0.25 mm | 1.34 m/s, 213° | 475 W/m² | - |
| 1777611363 | 28.89° C | 84% | 1009.5 hPa | 0.25 mm | 0.45 m/s, 312° | 680 W/m² | - |
| 1777611302 | 28.89° C | 83% | 1009.3 hPa | 0.25 mm | 0.89 m/s, 200° | 653 W/m² | - |
| 1777611241 | 28.89° C | 84% | 1009.3 hPa | 0.25 mm | 0.45 m/s, 277° | 626 W/m² | - |
| 1777611180 | 28.89° C | 84% | 1009.3 hPa | 0.25 mm | 0.89 m/s, 257° | 631 W/m² | - |
| 1777611119 | 28.89° C | 84% | 1009.3 hPa | 0.25 mm | 0.45 m/s, 14° | 620 W/m² | - |
| 1777611058 | 28.89° C | 84% | 1009.2 hPa | 0.25 mm | 0.89 m/s, 301° | 369 W/m² | - |
| 1777610997 | 28.89° C | 84% | 1009.2 hPa | 0.25 mm | 0 m/s | 327 W/m² | - |
* Rain latest hour (hover to see other rain measurements)
** Current wind speed in m/s (hover to see current wind gust speed)